Home > Weather > Summerside > Past weeks

Flag for Canada Past Weather in Summerside, Prince Edward Island, Canada — Yesterday and Last 2 Weeks

Now
68 °F

Mild.


Feels Like: 68 °F
Forecast: 63 / 76 °F
Wind: 2 mph from South

Location: Summerside Airport

Current Time: Jul 29, 2016 at 11:00:30 PM

Latest Report: Jul 29, 2016 at 10:00 PM


Visibility: N/A

Pressure: 29.89 "Hg

Humidity: 94%

Dew Point: 66 °F

Location of SummersideLocation

Past Weather in Summerside — Graph

°F

Summerside Temperature Yesterday

Maximum temperature yesterday: 83 °F (at 4:00 PM)
Minimum temperature yesterday: 65 °F (at 5:00 AM)
Average temperature yesterday: 72 °F

High & Low Weather Summary for the Past Weeks

 TemperatureHumidityPressure
High83 °F (Jul 28, 4:00 PM)100% (Jul 15, 6:00 AM)30.16 "Hg (Jul 15, 6:00 AM)
Low53 °F (Jul 20, 12:00 AM)46% (Jul 19, 4:00 PM)29.58 "Hg (Jul 23, 1:00 AM)
Average68 °F82%29.85 "Hg
* Reported Jul 14 10:00 PM — Jul 29 10:00 PM, Summerside, Weather by CustomWeather, © 2016

Note: Actual official high and low records may vary slightly from our data, if they occured in-between our weather recording intervals... More about our weather records

Advertising

Summerside Weather History for the Previous 24 Hours

Scroll right to see more
 ConditionsComfort  
Time TempWeatherWind HumidityBarometerVisibility
10:00 PM
Fri, Jul 29
68 °FMild.2 mph94%29.89 "HgN/A
9:00 PM69 °FMild.2 mph92%29.87 "HgN/A
8:00 PM71 °FMild.2 mph90%29.87 "HgN/A
7:00 PM71 °FMild.6 mph87%29.87 "HgN/A
6:00 PM74 °FMild.2 mph78%29.87 "HgN/A
5:00 PM73 °FMild.2 mph81%29.88 "HgN/A
4:00 PM73 °FMild.6 mph79%29.88 "HgN/A
3:00 PM74 °FMild.8 mph77%29.89 "HgN/A
2:00 PM74 °FMild.8 mph78%29.89 "HgN/A
1:00 PM71 °FMild.6 mph83%29.89 "HgN/A
12:00 PM70 °FMild.5 mph89%29.90 "HgN/A
11:00 AM69 °FMild.6 mph91%29.90 "HgN/A
10:00 AM69 °FMild.7 mph91%29.90 "HgN/A
9:00 AM68 °FMild.8 mph91%29.90 "HgN/A
8:00 AM67 °FMild.9 mph93%29.90 "HgN/A
7:00 AM66 °FMild.8 mph93%29.89 "HgN/A
6:00 AM64 °FMild.6 mph100%29.88 "HgN/A
5:00 AM67 °FMild.9 mph92%29.87 "HgN/A
4:00 AM67 °FMild.9 mph92%29.88 "HgN/A
3:00 AM68 °FMild.12 mph91%29.88 "HgN/A
2:00 AM68 °FMild.9 mph95%29.89 "HgN/A
1:00 AM67 °FMild.8 mph94%29.89 "HgN/A
12:00 AM67 °FMild.6 mph94%29.90 "HgN/A
11:00 PM
Thu, Jul 28
67 °FMild.6 mph95%29.90 "HgN/A
Weather by CustomWeather, © 2016

See weather overviewHow to use our weather pages